2019-358T00:17:39.135,   1,   5,   1,   120,   4,          0,     12.938,  47485.316,    39.577,    -7.727,    23.725,   310.536, 3, 2.400E+01,  1.50,  78,  2.947E-03,  2.872E-02, -9.999E+09, -9.999E+09, -9.999E+09, -9.999E+09, -9.999E+09, -9.999E+09, -9.999E+09, -9.999E+09, -9.999E+09, -9.999E+09, -9.999E+09, -9.999E+09, -9.999E+09, -9.999E+09, -9.999E+09, -9.999E+09, 255
2019-358T00:21:39.138,   1,   5,   1,   120,   4,          0,     12.938,  47485.316,    39.552,    -7.720,    23.724,   308.116, 3, 2.400E+01,  1.50,  78,  3.991E-03,  2.872E-02, -9.999E+09, -9.999E+09, -9.999E+09, -9.999E+09, -9.999E+09, -9.999E+09, -9.999E+09, -9.999E+09, -9.999E+09, -9.999E+09, -9.999E+09, -9.999E+09, -9.999E+09, -9.999E+09, -9.999E+09, -9.999E+09, 255
2019-358T00:23:39.139,   1,   5,   1,   120,   4,          0,     12.938,  47485.316,    39.540,    -7.717,    23.724,   306.906, 3, 2.400E+01,  1.50,  78,  1.244E-02,  2.872E-02, -9.999E+09, -9.999E+09, -9.999E+09, -9.999E+09, -9.999E+09, -9.999E+09, -9.999E+09, -9.999E+09, -9.999E+09, -9.999E+09, -9.999E+09, -9.999E+09, -9.999E+09, -9.999E+09, -9.999E+09, -9.999E+09, 255
2019-358T00:25:39.141,   1,   5,   1,   120,   4,          0,     12.938,  47485.316,    39.527,    -7.713,    23.724,   305.696, 3, 2.400E+01,  1.50,  78,  1.413E-02,  2.872E-02, -9.999E+09, -9.999E+09, -9.999E+09, -9.999E+09, -9.999E+09, -9.999E+09, -9.999E+09, -9.999E+09, -9.999E+09, -9.999E+09, -9.999E+09, -9.999E+09, -9.999E+09, -9.999E+09, -9.999E+09, -9.999E+09, 255
2019-358T00:27:39.142,   1,   5,   1,   120,   4,          0,     12.938,  47485.316,    39.515,    -7.709,    23.724,   304.486, 3, 2.400E+01,  1.50,  78,  1.308E-02,  2.872E-02, -9.999E+09, -9.999E+09, -9.999E+09, -9.999E+09, -9.999E+09, -9.999E+09, -9.999E+09, -9.999E+09, -9.999E+09, -9.999E+09, -9.999E+09, -9.999E+09, -9.999E+09, -9.999E+09, -9.999E+09, -9.999E+09, 255
2019-358T00:29:39.144,   1,   5,   1,   120,   4,          0,     12.938,  47485.316,    39.502,    -7.706,    23.724,   303.275, 3, 2.400E+01,  1.50,  78,  1.849E-02,  2.872E-02, -9.999E+09, -9.999E+09, -9.999E+09, -9.999E+09, -9.999E+09, -9.999E+09, -9.999E+09, -9.999E+09, -9.999E+09, -9.999E+09, -9.999E+09, -9.999E+09, -9.999E+09, -9.999E+09, -9.999E+09, -9.999E+09, 255
2019-358T00:31:39.145,   1,   5,   1,   120,   4,          0,     12.938,  47485.316,    39.489,    -7.702,    23.724,   302.065, 3, 2.400E+01,  1.50,  78,  2.208E-02,  2.872E-02, -9.999E+09, -9.999E+09, -9.999E+09, -9.999E+09, -9.999E+09, -9.999E+09, -9.999E+09, -9.999E+09, -9.999E+09, -9.999E+09, -9.999E+09, -9.999E+09, -9.999E+09, -9.999E+09, -9.999E+09, -9.999E+09, 255
2019-358T00:33:39.146,   1,   5,   1,   120,   4,          0,     12.938,  47485.316,    39.477,    -7.699,    23.724,   300.855, 3, 2.400E+01,  1.50,  78,  1.989E-02,  2.872E-02, -9.999E+09, -9.999E+09, -9.999E+09, -9.999E+09, -9.999E+09, -9.999E+09, -9.999E+09, -9.999E+09, -9.999E+09, -9.999E+09, -9.999E+09, -9.999E+09, -9.999E+09, -9.999E+09, -9.999E+09, -9.999E+09, 255
2019-358T00:35:39.148,   1,   5,   1,   120,   4,          0,     12.938,  47485.316,    39.464,    -7.695,    23.724,   299.645, 3, 2.400E+01,  1.50,  78,  1.874E-02,  2.872E-02, -9.999E+09, -9.999E+09, -9.999E+09, -9.999E+09, -9.999E+09, -9.999E+09, -9.999E+09, -9.999E+09, -9.999E+09, -9.999E+09, -9.999E+09, -9.999E+09, -9.999E+09, -9.999E+09, -9.999E+09, -9.999E+09, 255
2019-358T00:37:39.149,   1,   5,   1,   120,   4,          0,     12.938,  47485.316,    39.452,    -7.691,    23.724,   298.435, 3, 2.400E+01,  1.50,  78,  1.047E-02,  2.872E-02, -9.999E+09, -9.999E+09, -9.999E+09, -9.999E+09, -9.999E+09, -9.999E+09, -9.999E+09, -9.999E+09, -9.999E+09, -9.999E+09, -9.999E+09, -9.999E+09, -9.999E+09, -9.999E+09, -9.999E+09, -9.999E+09, 255
2019-358T00:39:39.151,   1,   5,   1,   120,   4,          0,     12.938,  47485.316,    39.439,    -7.688,    23.724,   297.225, 3, 2.400E+01,  1.50,  78,  1.404E-02,  2.872E-02, -9.999E+09, -9.999E+09, -9.999E+09, -9.999E+09, -9.999E+09, -9.999E+09, -9.999E+09, -9.999E+09, -9.999E+09, -9.999E+09, -9.999E+09, -9.999E+09, -9.999E+09, -9.999E+09, -9.999E+09, -9.999E+09, 255
2019-358T00:41:39.152,   1,   5,   1,   120,   4,          0,     12.938,  47485.316,    39.427,    -7.684,    23.724,   296.015, 3, 2.400E+01,  1.50,  78,  1.820E-02,  2.872E-02, -9.999E+09, -9.999E+09, -9.999E+09, -9.999E+09, -9.999E+09, -9.999E+09, -9.999E+09, -9.999E+09, -9.999E+09, -9.999E+09, -9.999E+09, -9.999E+09, -9.999E+09, -9.999E+09, -9.999E+09, -9.999E+09, 255
2019-358T00:43:39.153,   1,   5,   1,   120,   4,          0,     12.938,  47485.316,    39.414,    -7.680,    23.724,   294.805, 3, 2.400E+01,  1.50,  78,  2.149E-02,  2.872E-02, -9.999E+09, -9.999E+09, -9.999E+09, -9.999E+09, -9.999E+09, -9.999E+09, -9.999E+09, -9.999E+09, -9.999E+09, -9.999E+09, -9.999E+09, -9.999E+09, -9.999E+09, -9.999E+09, -9.999E+09, -9.999E+09, 255
2019-358T00:45:39.155,   1,   5,   1,   120,   4,          0,     12.938,  47485.316,    39.401,    -7.677,    23.724,   293.594, 3, 2.400E+01,  1.50,  78,  3.162E-02,  2.872E-02, -9.999E+09, -9.999E+09, -9.999E+09, -9.999E+09, -9.999E+09, -9.999E+09, -9.999E+09, -9.999E+09, -9.999E+09, -9.999E+09, -9.999E+09, -9.999E+09, -9.999E+09, -9.999E+09, -9.999E+09, -9.999E+09, 255
2019-358T00:47:39.156,   1,   5,   1,   120,   4,          0,     12.938,  47485.316,    39.389,    -7.673,    23.724,   292.384, 3, 2.400E+01,  1.50,  78,  3.784E-02,  2.872E-02, -9.999E+09, -9.999E+09, -9.999E+09, -9.999E+09, -9.999E+09, -9.999E+09, -9.999E+09, -9.999E+09, -9.999E+09, -9.999E+09, -9.999E+09, -9.999E+09, -9.999E+09, -9.999E+09, -9.999E+09, -9.999E+09, 255
2019-358T00:49:39.157,   1,   5,   1,   120,   4,          0,     12.938,  47485.316,    39.376,    -7.669,    23.724,   291.174, 3, 2.400E+01,  1.50,  78,  3.666E-02,  2.873E-02, -9.999E+09, -9.999E+09, -9.999E+09, -9.999E+09, -9.999E+09, -9.999E+09, -9.999E+09, -9.999E+09, -9.999E+09, -9.999E+09, -9.999E+09, -9.999E+09, -9.999E+09, -9.999E+09, -9.999E+09, -9.999E+09, 255
2019-358T00:51:39.159,   1,   5,   1,   120,   4,          0,     12.938,  47485.316,    39.364,    -7.666,    23.723,   289.964, 3, 2.400E+01,  1.50,  78,  2.336E-02,  2.873E-02, -9.999E+09, -9.999E+09, -9.999E+09, -9.999E+09, -9.999E+09, -9.999E+09, -9.999E+09, -9.999E+09, -9.999E+09, -9.999E+09, -9.999E+09, -9.999E+09, -9.999E+09, -9.999E+09, -9.999E+09, -9.999E+09, 255
2019-358T00:53:39.160,   1,   5,   1,   120,   4,          0,     12.938,  47485.316,    39.351,    -7.662,    23.723,   288.754, 3, 2.400E+01,  1.50,  78,  1.628E-02,  2.872E-02, -9.999E+09, -9.999E+09, -9.999E+09, -9.999E+09, -9.999E+09, -9.999E+09, -9.999E+09, -9.999E+09, -9.999E+09, -9.999E+09, -9.999E+09, -9.999E+09, -9.999E+09, -9.999E+09, -9.999E+09, -9.999E+09, 255
2019-358T00:55:39.162,   1,   5,   1,   120,   4,          0,     12.938,  47485.316,    39.338,    -7.659,    23.723,   287.544, 3, 2.400E+01,  1.50,  78,  1.757E-02,  2.872E-02, -9.999E+09, -9.999E+09, -9.999E+09, -9.999E+09, -9.999E+09, -9.999E+09, -9.999E+09, -9.999E+09, -9.999E+09, -9.999E+09, -9.999E+09, -9.999E+09, -9.999E+09, -9.999E+09, -9.999E+09, -9.999E+09, 255
2019-358T00:57:39.163,   1,   5,   1,   120,   4,          0,     12.938,  47485.316,    39.326,    -7.655,    23.723,   286.334, 3, 2.400E+01,  1.50,  78,  1.971E-02,  2.872E-02, -9.999E+09, -9.999E+09, -9.999E+09, -9.999E+09, -9.999E+09, -9.999E+09, -9.999E+09, -9.999E+09, -9.999E+09, -9.999E+09, -9.999E+09, -9.999E+09, -9.999E+09, -9.999E+09, -9.999E+09, -9.999E+09, 255
2019-358T00:59:39.164,   1,   5,   1,   120,   4,          0,     12.938,  47485.316,    39.313,    -7.651,    23.723,   285.123, 3, 2.400E+01,  1.50,  78,  1.937E-02,  2.872E-02, -9.999E+09, -9.999E+09, -9.999E+09, -9.999E+09, -9.999E+09, -9.999E+09, -9.999E+09, -9.999E+09, -9.999E+09, -9.999E+09, -9.999E+09, -9.999E+09, -9.999E+09, -9.999E+09, -9.999E+09, -9.999E+09, 255
2019-358T01:01:39.166,   1,   5,   1,   120,   4,          0,     12.938,  47485.316,    39.301,    -7.648,    23.723,   283.913, 3, 2.400E+01,  1.50,  78,  1.845E-02,  2.872E-02, -9.999E+09, -9.999E+09, -9.999E+09, -9.999E+09, -9.999E+09, -9.999E+09, -9.999E+09, -9.999E+09, -9.999E+09, -9.999E+09, -9.999E+09, -9.999E+09, -9.999E+09, -9.999E+09, -9.999E+09, -9.999E+09, 255
2019-358T01:03:39.167,   1,   5,   1,   120,   4,          0,     12.938,  47485.316,    39.288,    -7.644,    23.723,   282.703, 3, 2.400E+01,  1.50,  78,  2.287E-02,  2.872E-02, -9.999E+09, -9.999E+09, -9.999E+09, -9.999E+09, -9.999E+09, -9.999E+09, -9.999E+09, -9.999E+09, -9.999E+09, -9.999E+09, -9.999E+09, -9.999E+09, -9.999E+09, -9.999E+09, -9.999E+09, -9.999E+09, 255
2019-358T01:05:39.169,   1,   5,   1,   120,   4,          0,     12.938,  47485.316,    39.275,    -7.640,    23.723,   281.493, 3, 2.400E+01,  1.50,  78,  2.016E-02,  2.873E-02, -9.999E+09, -9.999E+09, -9.999E+09, -9.999E+09, -9.999E+09, -9.999E+09, -9.999E+09, -9.999E+09, -9.999E+09, -9.999E+09, -9.999E+09, -9.999E+09, -9.999E+09, -9.999E+09, -9.999E+09, -9.999E+09, 255
2019-358T01:07:39.170,   1,   5,   1,   120,   4,          0,     12.938,  47485.316,    39.263,    -7.637,    23.723,   280.283, 3, 2.400E+01,  1.50,  78,  2.327E-02,  2.872E-02, -9.999E+09, -9.999E+09, -9.999E+09, -9.999E+09, -9.999E+09, -9.999E+09, -9.999E+09, -9.999E+09, -9.999E+09, -9.999E+09, -9.999E+09, -9.999E+09, -9.999E+09, -9.999E+09, -9.999E+09, -9.999E+09, 255
2019-358T01:09:39.171,   1,   5,   1,   120,   4,          0,     12.938,  47485.316,    39.250,    -7.633,    23.723,   279.073, 3, 2.400E+01,  1.50,  78,  2.257E-02,  2.872E-02, -9.999E+09, -9.999E+09, -9.999E+09, -9.999E+09, -9.999E+09, -9.999E+09, -9.999E+09, -9.999E+09, -9.999E+09, -9.999E+09, -9.999E+09, -9.999E+09, -9.999E+09, -9.999E+09, -9.999E+09, -9.999E+09, 255
2019-358T01:11:39.173,   1,   5,   1,   120,   4,          0,     12.938,  47485.316,    39.237,    -7.629,    23.723,   277.863, 3, 2.400E+01,  1.50,  78,  2.453E-02,  2.873E-02, -9.999E+09, -9.999E+09, -9.999E+09, -9.999E+09, -9.999E+09, -9.999E+09, -9.999E+09, -9.999E+09, -9.999E+09, -9.999E+09, -9.999E+09, -9.999E+09, -9.999E+09, -9.999E+09, -9.999E+09, -9.999E+09, 255
2019-358T01:13:39.174,   1,   5,   1,   120,   4,          0,     12.938,  47485.316,    39.225,    -7.626,    23.722,   276.652, 3, 2.400E+01,  1.50,  78,  2.403E-02,  2.872E-02, -9.999E+09, -9.999E+09, -9.999E+09, -9.999E+09, -9.999E+09, -9.999E+09, -9.999E+09, -9.999E+09, -9.999E+09, -9.999E+09, -9.999E+09, -9.999E+09, -9.999E+09, -9.999E+09, -9.999E+09, -9.999E+09, 255
2019-358T01:15:39.175,   1,   5,   1,   120,   4,          0,     12.938,  47485.316,    39.212,    -7.622,    23.722,   275.442, 3, 2.400E+01,  1.50,  78,  2.237E-02,  2.872E-02, -9.999E+09, -9.999E+09, -9.999E+09, -9.999E+09, -9.999E+09, -9.999E+09, -9.999E+09, -9.999E+09, -9.999E+09, -9.999E+09, -9.999E+09, -9.999E+09, -9.999E+09, -9.999E+09, -9.999E+09, -9.999E+09, 255
2019-358T01:17:39.177,   1,   5,   1,   120,   4,          0,     12.938,  47485.316,    39.199,    -7.618,    23.722,   274.232, 3, 2.400E+01,  1.50,  78,  2.120E-02,  2.872E-02, -9.999E+09, -9.999E+09, -9.999E+09, -9.999E+09, -9.999E+09, -9.999E+09, -9.999E+09, -9.999E+09, -9.999E+09, -9.999E+09, -9.999E+09, -9.999E+09, -9.999E+09, -9.999E+09, -9.999E+09, -9.999E+09, 255
2019-358T01:19:39.178,   1,   5,   1,   120,   4,          0,     12.938,  47485.316,    39.187,    -7.615,    23.722,   273.022, 3, 2.400E+01,  1.50,  78,  2.564E-02,  2.872E-02, -9.999E+09, -9.999E+09, -9.999E+09, -9.999E+09, -9.999E+09, -9.999E+09, -9.999E+09, -9.999E+09, -9.999E+09, -9.999E+09, -9.999E+09, -9.999E+09, -9.999E+09, -9.999E+09, -9.999E+09, -9.999E+09, 255
2019-358T01:21:39.180,   1,   5,   1,   120,   4,          0,     12.938,  47485.316,    39.174,    -7.611,    23.722,   271.812, 3, 2.400E+01,  1.50,  78,  2.413E-02,  2.873E-02, -9.999E+09, -9.999E+09, -9.999E+09, -9.999E+09, -9.999E+09, -9.999E+09, -9.999E+09, -9.999E+09, -9.999E+09, -9.999E+09, -9.999E+09, -9.999E+09, -9.999E+09, -9.999E+09, -9.999E+09, -9.999E+09, 255
2019-358T01:23:39.181,   1,   5,   1,   120,   4,          0,     12.938,  47485.316,    39.162,    -7.607,    23.722,   270.602, 3, 2.400E+01,  1.50,  78,  2.907E-02,  2.872E-02, -9.999E+09, -9.999E+09, -9.999E+09, -9.999E+09, -9.999E+09, -9.999E+09, -9.999E+09, -9.999E+09, -9.999E+09, -9.999E+09, -9.999E+09, -9.999E+09, -9.999E+09, -9.999E+09, -9.999E+09, -9.999E+09, 255
2019-358T01:25:39.182,   1,   5,   1,   120,   4,          0,     12.938,  47485.316,    39.149,    -7.604,    23.722,   269.392, 3, 2.400E+01,  1.50,  78,  2.628E-02,  2.872E-02, -9.999E+09, -9.999E+09, -9.999E+09, -9.999E+09, -9.999E+09, -9.999E+09, -9.999E+09, -9.999E+09, -9.999E+09, -9.999E+09, -9.999E+09, -9.999E+09, -9.999E+09, -9.999E+09, -9.999E+09, -9.999E+09, 255
2019-358T01:27:39.184,   1,   5,   1,   120,   4,          0,     12.938,  47485.316,    39.136,    -7.600,    23.722,   268.181, 3, 2.400E+01,  1.50,  78,  2.712E-02,  2.872E-02, -9.999E+09, -9.999E+09, -9.999E+09, -9.999E+09, -9.999E+09, -9.999E+09, -9.999E+09, -9.999E+09, -9.999E+09, -9.999E+09, -9.999E+09, -9.999E+09, -9.999E+09, -9.999E+09, -9.999E+09, -9.999E+09, 255
2019-358T01:29:39.185,   1,   5,   1,   120,   4,          0,     12.938,  47485.316,    39.124,    -7.596,    23.722,   266.971, 3, 2.400E+01,  1.50,  78,  2.790E-02,  2.873E-02, -9.999E+09, -9.999E+09, -9.999E+09, -9.999E+09, -9.999E+09, -9.999E+09, -9.999E+09, -9.999E+09, -9.999E+09, -9.999E+09, -9.999E+09, -9.999E+09, -9.999E+09, -9.999E+09, -9.999E+09, -9.999E+09, 255
2019-358T01:31:39.187,   1,   5,   1,   120,   4,          0,     12.938,  47485.316,    39.111,    -7.592,    23.722,   265.761, 3, 2.400E+01,  1.50,  78,  2.326E-02,  2.872E-02, -9.999E+09, -9.999E+09, -9.999E+09, -9.999E+09, -9.999E+09, -9.999E+09, -9.999E+09, -9.999E+09, -9.999E+09, -9.999E+09, -9.999E+09, -9.999E+09, -9.999E+09, -9.999E+09, -9.999E+09, -9.999E+09, 255
2019-358T01:33:39.188,   1,   5,   1,   120,   4,          0,     12.938,  47485.316,    39.098,    -7.589,    23.722,   264.551, 3, 2.400E+01,  1.50,  78,  2.719E-02,  2.872E-02, -9.999E+09, -9.999E+09, -9.999E+09, -9.999E+09, -9.999E+09, -9.999E+09, -9.999E+09, -9.999E+09, -9.999E+09, -9.999E+09, -9.999E+09, -9.999E+09, -9.999E+09, -9.999E+09, -9.999E+09, -9.999E+09, 255
2019-358T01:35:39.189,   1,   5,   1,   120,   4,          0,     12.938,  47485.316,    39.086,    -7.585,    23.722,   263.341, 3, 2.400E+01,  1.50,  78,  2.925E-02,  2.872E-02, -9.999E+09, -9.999E+09, -9.999E+09, -9.999E+09, -9.999E+09, -9.999E+09, -9.999E+09, -9.999E+09, -9.999E+09, -9.999E+09, -9.999E+09, -9.999E+09, -9.999E+09, -9.999E+09, -9.999E+09, -9.999E+09, 255
2019-358T01:37:39.191,   1,   5,   1,   120,   4,          0,     12.938,  47485.316,    39.073,    -7.581,    23.722,   262.131, 3, 2.400E+01,  1.50,  78,  1.818E-02,  2.872E-02, -9.999E+09, -9.999E+09, -9.999E+09, -9.999E+09, -9.999E+09, -9.999E+09, -9.999E+09, -9.999E+09, -9.999E+09, -9.999E+09, -9.999E+09, -9.999E+09, -9.999E+09, -9.999E+09, -9.999E+09, -9.999E+09, 255
2019-358T01:39:39.192,   1,   5,   1,   120,   4,          0,     12.938,  47485.316,    39.060,    -7.578,    23.722,   260.921, 3, 2.400E+01,  1.50,  78,  1.803E-02,  2.872E-02, -9.999E+09, -9.999E+09, -9.999E+09, -9.999E+09, -9.999E+09, -9.999E+09, -9.999E+09, -9.999E+09, -9.999E+09, -9.999E+09, -9.999E+09, -9.999E+09, -9.999E+09, -9.999E+09, -9.999E+09, -9.999E+09, 255
2019-358T01:41:39.193,   1,   5,   1,   120,   4,          0,     12.938,  47485.316,    39.048,    -7.574,    23.721,   259.710, 3, 2.400E+01,  1.50,  78,  2.129E-02,  2.872E-02, -9.999E+09, -9.999E+09, -9.999E+09, -9.999E+09, -9.999E+09, -9.999E+09, -9.999E+09, -9.999E+09, -9.999E+09, -9.999E+09, -9.999E+09, -9.999E+09, -9.999E+09, -9.999E+09, -9.999E+09, -9.999E+09, 255
2019-358T01:43:39.195,   1,   5,   1,   120,   4,          0,     12.938,  47485.316,    39.035,    -7.570,    23.721,   258.500, 3, 2.400E+01,  1.50,  78,  1.967E-02,  2.872E-02, -9.999E+09, -9.999E+09, -9.999E+09, -9.999E+09, -9.999E+09, -9.999E+09, -9.999E+09, -9.999E+09, -9.999E+09, -9.999E+09, -9.999E+09, -9.999E+09, -9.999E+09, -9.999E+09, -9.999E+09, -9.999E+09, 255
2019-358T01:45:39.196,   1,   5,   1,   120,   4,          0,     12.938,  47485.316,    39.022,    -7.567,    23.721,   257.290, 3, 2.400E+01,  1.50,  78,  1.640E-02,  2.872E-02, -9.999E+09, -9.999E+09, -9.999E+09, -9.999E+09, -9.999E+09, -9.999E+09, -9.999E+09, -9.999E+09, -9.999E+09, -9.999E+09, -9.999E+09, -9.999E+09, -9.999E+09, -9.999E+09, -9.999E+09, -9.999E+09, 255
2019-358T01:47:39.198,   1,   5,   1,   120,   4,          0,     12.938,  47485.316,    39.010,    -7.563,    23.721,   256.080, 3, 2.400E+01,  1.50,  78,  2.070E-02,  2.872E-02, -9.999E+09, -9.999E+09, -9.999E+09, -9.999E+09, -9.999E+09, -9.999E+09, -9.999E+09, -9.999E+09, -9.999E+09, -9.999E+09, -9.999E+09, -9.999E+09, -9.999E+09, -9.999E+09, -9.999E+09, -9.999E+09, 255
2019-358T01:49:39.199,   1,   5,   1,   120,   4,          0,     12.938,  47485.316,    38.997,    -7.559,    23.721,   254.870, 3, 2.400E+01,  1.50,  78,  2.203E-02,  2.872E-02, -9.999E+09, -9.999E+09, -9.999E+09, -9.999E+09, -9.999E+09, -9.999E+09, -9.999E+09, -9.999E+09, -9.999E+09, -9.999E+09, -9.999E+09, -9.999E+09, -9.999E+09, -9.999E+09, -9.999E+09, -9.999E+09, 255
2019-358T01:51:39.200,   1,   5,   1,   120,   4,          0,     12.938,  47485.316,    38.984,    -7.555,    23.721,   253.660, 3, 2.400E+01,  1.50,  78,  1.939E-02,  2.872E-02, -9.999E+09, -9.999E+09, -9.999E+09, -9.999E+09, -9.999E+09, -9.999E+09, -9.999E+09, -9.999E+09, -9.999E+09, -9.999E+09, -9.999E+09, -9.999E+09, -9.999E+09, -9.999E+09, -9.999E+09, -9.999E+09, 255
2019-358T01:53:39.202,   1,   5,   1,   120,   4,          0,     12.938,  47485.316,    38.971,    -7.552,    23.721,   252.449, 3, 2.400E+01,  1.50,  78,  2.025E-02,  2.872E-02, -9.999E+09, -9.999E+09, -9.999E+09, -9.999E+09, -9.999E+09, -9.999E+09, -9.999E+09, -9.999E+09, -9.999E+09, -9.999E+09, -9.999E+09, -9.999E+09, -9.999E+09, -9.999E+09, -9.999E+09, -9.999E+09, 255
2019-358T01:55:39.203,   1,   5,   1,   120,   4,          0,     12.938,  47485.316,    38.959,    -7.548,    23.721,   251.239, 3, 2.400E+01,  1.50,  78,  2.156E-02,  2.872E-02, -9.999E+09, -9.999E+09, -9.999E+09, -9.999E+09, -9.999E+09, -9.999E+09, -9.999E+09, -9.999E+09, -9.999E+09, -9.999E+09, -9.999E+09, -9.999E+09, -9.999E+09, -9.999E+09, -9.999E+09, -9.999E+09, 255
2019-358T01:57:39.204,   1,   5,   1,   120,   4,          0,     12.938,  47485.316,    38.946,    -7.544,    23.721,   250.029, 3, 2.400E+01,  1.50,  78,  1.823E-02,  2.872E-02, -9.999E+09, -9.999E+09, -9.999E+09, -9.999E+09, -9.999E+09, -9.999E+09, -9.999E+09, -9.999E+09, -9.999E+09, -9.999E+09, -9.999E+09, -9.999E+09, -9.999E+09, -9.999E+09, -9.999E+09, -9.999E+09, 255
2019-358T01:59:39.206,   1,   5,   1,   120,   4,          0,     12.938,  47485.316,    38.933,    -7.541,    23.721,   248.819, 3, 2.400E+01,  1.50,  78,  1.954E-02,  2.872E-02, -9.999E+09, -9.999E+09, -9.999E+09, -9.999E+09, -9.999E+09, -9.999E+09, -9.999E+09, -9.999E+09, -9.999E+09, -9.999E+09, -9.999E+09, -9.999E+09, -9.999E+09, -9.999E+09, -9.999E+09, -9.999E+09, 255
2019-358T02:01:39.207,   1,   5,   1,   120,   4,          0,     12.938,  47485.316,    38.921,    -7.537,    23.721,   247.609, 3, 2.400E+01,  1.50,  78,  2.212E-02,  2.872E-02, -9.999E+09, -9.999E+09, -9.999E+09, -9.999E+09, -9.999E+09, -9.999E+09, -9.999E+09, -9.999E+09, -9.999E+09, -9.999E+09, -9.999E+09, -9.999E+09, -9.999E+09, -9.999E+09, -9.999E+09, -9.999E+09, 255
2019-358T02:03:39.209,   1,   5,   1,   120,   4,          0,     12.938,  47485.316,    38.908,    -7.533,    23.721,   246.399, 3, 2.400E+01,  1.50,  78,  2.088E-02,  2.872E-02, -9.999E+09, -9.999E+09, -9.999E+09, -9.999E+09, -9.999E+09, -9.999E+09, -9.999E+09, -9.999E+09, -9.999E+09, -9.999E+09, -9.999E+09, -9.999E+09, -9.999E+09, -9.999E+09, -9.999E+09, -9.999E+09, 255
2019-358T02:05:39.210,   1,   5,   1,   120,   4,          0,     12.938,  47485.316,    38.895,    -7.529,    23.721,   245.189, 3, 2.400E+01,  1.50,  78,  2.842E-02,  2.872E-02, -9.999E+09, -9.999E+09, -9.999E+09, -9.999E+09, -9.999E+09, -9.999E+09, -9.999E+09, -9.999E+09, -9.999E+09, -9.999E+09, -9.999E+09, -9.999E+09, -9.999E+09, -9.999E+09, -9.999E+09, -9.999E+09, 255
2019-358T02:07:39.211,   1,   5,   1,   120,   4,          0,     12.938,  47485.316,    38.882,    -7.526,    23.721,   243.978, 3, 2.400E+01,  1.50,  78,  2.764E-02,  2.872E-02, -9.999E+09, -9.999E+09, -9.999E+09, -9.999E+09, -9.999E+09, -9.999E+09, -9.999E+09, -9.999E+09, -9.999E+09, -9.999E+09, -9.999E+09, -9.999E+09, -9.999E+09, -9.999E+09, -9.999E+09, -9.999E+09, 255
2019-358T02:09:39.213,   1,   5,   1,   120,   4,          0,     12.938,  47485.316,    38.870,    -7.522,    23.720,   242.768, 3, 2.400E+01,  1.50,  78,  2.372E-02,  2.872E-02, -9.999E+09, -9.999E+09, -9.999E+09, -9.999E+09, -9.999E+09, -9.999E+09, -9.999E+09, -9.999E+09, -9.999E+09, -9.999E+09, -9.999E+09, -9.999E+09, -9.999E+09, -9.999E+09, -9.999E+09, -9.999E+09, 255
2019-358T02:11:39.214,   1,   5,   1,   120,   4,          0,     12.938,  47485.316,    38.857,    -7.518,    23.720,   241.558, 3, 2.400E+01,  1.50,  78,  2.246E-02,  2.872E-02, -9.999E+09, -9.999E+09, -9.999E+09, -9.999E+09, -9.999E+09, -9.999E+09, -9.999E+09, -9.999E+09, -9.999E+09, -9.999E+09, -9.999E+09, -9.999E+09, -9.999E+09, -9.999E+09, -9.999E+09, -9.999E+09, 255
2019-358T02:13:39.216,   1,   5,   1,   120,   4,          0,     12.938,  47485.316,    38.844,    -7.514,    23.720,   240.348, 3, 2.400E+01,  1.50,  78,  2.663E-02,  2.872E-02, -9.999E+09, -9.999E+09, -9.999E+09, -9.999E+09, -9.999E+09, -9.999E+09, -9.999E+09, -9.999E+09, -9.999E+09, -9.999E+09, -9.999E+09, -9.999E+09, -9.999E+09, -9.999E+09, -9.999E+09, -9.999E+09, 255
2019-358T02:15:39.217,   1,   5,   1,   120,   4,          0,     12.938,  47485.316,    38.832,    -7.511,    23.720,   239.138, 3, 2.400E+01,  1.50,  78,  4.198E-02,  2.873E-02, -9.999E+09, -9.999E+09, -9.999E+09, -9.999E+09, -9.999E+09, -9.999E+09, -9.999E+09, -9.999E+09, -9.999E+09, -9.999E+09, -9.999E+09, -9.999E+09, -9.999E+09, -9.999E+09, -9.999E+09, -9.999E+09, 255
2019-358T02:17:39.218,   1,   5,   1,   120,   4,          0,     12.938,  47485.316,    38.819,    -7.507,    23.720,   237.928, 3, 2.400E+01,  1.50,  78,  4.371E-02,  2.873E-02, -9.999E+09, -9.999E+09, -9.999E+09, -9.999E+09, -9.999E+09, -9.999E+09, -9.999E+09, -9.999E+09, -9.999E+09, -9.999E+09, -9.999E+09, -9.999E+09, -9.999E+09, -9.999E+09, -9.999E+09, -9.999E+09, 255
2019-358T02:19:39.220,   1,   5,   1,   120,   4,          0,     12.938,  47485.316,    38.806,    -7.503,    23.720,   236.717, 3, 2.400E+01,  1.50,  78,  4.471E-02,  2.873E-02, -9.999E+09, -9.999E+09, -9.999E+09, -9.999E+09, -9.999E+09, -9.999E+09, -9.999E+09, -9.999E+09, -9.999E+09, -9.999E+09, -9.999E+09, -9.999E+09, -9.999E+09, -9.999E+09, -9.999E+09, -9.999E+09, 255
2019-358T02:21:39.221,   1,   5,   1,   120,   4,          0,     12.938,  47485.316,    38.793,    -7.499,    23.720,   235.507, 3, 2.400E+01,  1.50,  78,  4.541E-02,  2.873E-02, -9.999E+09, -9.999E+09, -9.999E+09, -9.999E+09, -9.999E+09, -9.999E+09, -9.999E+09, -9.999E+09, -9.999E+09, -9.999E+09, -9.999E+09, -9.999E+09, -9.999E+09, -9.999E+09, -9.999E+09, -9.999E+09, 255
2019-358T02:23:39.223,   1,   5,   1,   120,   4,          0,     12.938,  47485.316,    38.781,    -7.496,    23.720,   234.297, 3, 2.400E+01,  1.50,  78,  4.500E-02,  2.873E-02, -9.999E+09, -9.999E+09, -9.999E+09, -9.999E+09, -9.999E+09, -9.999E+09, -9.999E+09, -9.999E+09, -9.999E+09, -9.999E+09, -9.999E+09, -9.999E+09, -9.999E+09, -9.999E+09, -9.999E+09, -9.999E+09, 255